map of HGH home
HGH - Airport
Location
City:  Hangzhou, Zhejiang, China
Name:Xiaoshan International Airport
Old (Alt.):Jianqiao Airport
ICAO:ZSHC
IATA:HGH

Details
Type:Airport (Aerodrome, Airfield)
Use:Public/Civil, International (customs port of entry)
Latitude:3014'N (30.228)
Longitude:12026'E (120.433)
Elevation:23 ft (7 m)
Variation:5.59W (WMM2015 magnetic declination)
-0.08 annual change
Runways:2
Longest:11811 × 148 ft (3600 × 45 m), paved

Time
Time Zone:UTC+8
Local Time:

Weather
METAR:ZSHC 201400Z VRB01MPS 9999 FEW033 26/25 Q1010 NOSIG
TAF:ZSHC 200904Z 2012/2112 06003MPS 3000 BR SCT020 TX30/2106Z TN25/2021Z
TEMPO 2105/2111 TSRA SCT020 FEW030CB

Related Locations
Nearby:
Farthest:RCQ: 12360 mi / 19891 km
Reconquista, S, AR

Find:

   beyond  
but within

Other Information
Maps:
NOTAMs:
Links:
Sources:

  
  • flag of China
  

Airport Diagram

Airport diagram for HGH

Airport diagram PDF

Sectional Chart

Flight Planning
at skyvector.com

Satellite Image

Google Maps Satellite view

 

Copyright © 2004-2018 Karl L. Swartz. All rights reserved.
The Great Circle Mapper name and logo are trademarks of the Great Circle Mapper.
All other trademarks mentioned herein belong to their respective owners.
Please see credits for attibutions and further copyright information.

  Follow gcmap on Facebook Follow gcmap on Twitter Follow gcmap on Google+ GCmap on LinkedIn

hCard Microformat

Geo Microformat